Orbital Elements at Epoch 2459000.5 (2020-May-31.0) TDB
Reference: JPL 17 (heliocentric ecliptic J2000)
Element | Value | Uncertainty (1-sigma) | Units |
e | .1382311896598573 | 4.8342e-08 | |
a | 2.757333626834074 | 1.6745e-08 | au |
q | 2.376184119307671 | 1.35e-07 | au |
i | 12.61452994724577 | 5.4721e-06 | deg |
node | 27.62361849506812 | 2.0077e-05 | deg |
peri | 343.1222626490931 | 2.5631e-05 | deg |
M | 303.3413203895055 | 1.6774e-05 | deg |
tp | 2459263.706343156883 (2021-Feb-18.20634316) | 7.8944e-05 | TDB |
period | 1672.370132658849 4.58 | 1.5235e-05 4.171e-08 | d yr |
n | .2152633516766096 | 1.9609e-09 | deg/d |
Q | 3.138483134360477 | 1.906e-08 | au |
|
| | Orbit Determination Parameters
Additional Information
|